Location: Bletchingley
(51.2333°N, 0.1000°W)
Time: 16:53:04
(UTC+00:00)

Cosmos 2233 Rocket - Pass Details

Date: 18 September 2020
Orbit: 953 x 991 km, 82.9° (Epoch: 30 October)

Event Time Altitude Azimuth Distance (km) Brightness Sun altitude
Rises 18:42:16 0° 185° (S) 3,669 7.0 -6.3°
Reaches altitude 10° 18:44:46 10° 185° (S) 2,720 6.3 -6.7°
Maximum altitude 18:51:00 85° 98° (E) 981 4.0 -7.7°
Drops below altitude 10° 18:57:14 10° 11° (N) 2,712 6.4 -8.6°
Sets 18:59:44 0° 11° (N) 3,658 7.1 -9.0°
